KUIPER-00421

导读 | 豆包AI

KUIPER-00421(NORAD编号68933)是亚马逊“柯伊伯计划”(Project Kuiper)星座中的一颗试验通信卫星,该计划旨在构建大规模近地轨道卫星星座,为全球提供高速低延迟互联网接入服务。作为柯伊伯项目早期发射的技术验证卫星之一,它主要用于测试星座部署、卫星平台性能及通信载荷技术,为后续大规模组网发射积累工程经验,目前运行在近地轨道,处于在轨测试或初始运营状态,是亚马逊抢占低轨卫星互联网市场的重要技术验证节点。

基本信息
目录编号:
68933
目录名称:
KUIPER-00421
国际标识:
2026-098Q
轨道中心:
EARTH
卫星名称:
KUIPER-00421
卫星全名:
KUIPER-00421
卫星状态:
在轨 (已飞行25 天)
发射日期:
2026-04-30 UTC
国别 :
美国 (US)
星等 :
--
轨道信息
数据来源 国际轨道数据
星历时间: 2026-05-24T03:41:08+0800
1天前
查看轨道信息
半长轴: 6841.65km
偏心率: 0.0009204
轨道倾角: 51.876°
近地点辐角 45.813°
升交点赤经 185.200°
平近点角 314.361°
近地点: 457.215km
远地点: 469.811km
周期: 93.864分钟
每日圈数: 15.341278
详细信息
使用方式:
暂无
2D轨道图
3D轨道图
轨道高度分析图
轨道倾角分析图
轨道综合分析图
查看轨道综合分析图